FW9451 Weather Reports


Display with metric or nautical units.
time (UTC)temp
F
wind
direction
speed
MPH
gust
MPH
rain 1hr
in
rain 24hr
in
rain mn
in
humidity
%
barometer
mb
20260905160119 65 28 3.0 14.0 0.00 0.00 0.00 81 1012.5
20260905154557 64 55 6.0 14.0 0.00 0.00 0.00 82 1012.5
20260905153101 65 23 5.0 12.0 0.00 0.00 0.00 81 1012.3
20260905151609 64 51 7.0 15.0 0.00 0.00 0.00 82 1012.4
20260905150057 65 9 5.0 12.0 0.00 0.00 0.00 77 1012.2
20260905144555 67 26 4.0 13.0 0.00 0.00 0.00 75 1012.0
20260905143055 65 0 3.0 13.0 0.00 0.00 0.00 77 1012.0
20260905141555 64 36 3.0 15.0 0.00 0.00 0.00 80 1012.1
20260905140107 64 28 3.0 11.0 0.00 0.00 0.00 81 1011.8
20260905134557 62 26 3.0 6.0 0.00 0.00 0.00 84 1011.7
20260905133055 63 67 5.0 12.0 0.00 0.00 0.00 83 1011.7
20260905131607 63 29 7.0 15.0 0.00 0.00 0.00 81 1011.5
20260905130101 62 350 5.0 12.0 0.00 0.00 0.00 83 1011.3
20260905124557 62 57 4.0 12.0 0.00 0.00 0.00 84 1011.3
20260905123059 62 61 7.0 20.0 0.00 0.00 0.00 82 1011.3
20260905121559 62 37 4.0 13.0 0.00 0.00 0.00 83 1011.1
20260905120107 61 38 3.0 12.0 0.00 0.00 0.00 85 1011.0
20260905114554 61 40 3.0 10.0 0.00 0.00 0.00 86 1010.8
20260905113051 60 37 3.0 9.0 0.00 0.00 0.00 87 1010.7
20260905111611 60 5 1.0 9.0 0.00 0.00 0.00 88 1010.6
20260905110059 60 9 1.0 6.0 0.00 0.00 0.00 88 1010.6
20260905104555 60 0 1.0 5.0 0.00 0.00 0.00 88 1010.5
20260905103051 60 88 2.0 5.0 0.00 0.00 0.00 88 1010.4
20260905101602 60 55 4.0 9.0 0.00 0.00 0.00 87 1010.2
20260905100059 60 34 3.0 10.0 0.00 0.00 0.00 87 1010.3
20260905094557 60 66 4.0 9.0 0.00 0.00 0.00 87 1009.9
20260905093101 60 40 2.0 9.0 0.00 0.00 0.00 87 1009.9
20260905091558 60 36 4.0 7.0 0.00 0.00 0.00 87 1009.9
20260905090055 61 19 2.0 9.0 0.00 0.00 0.00 86 1009.8
20260905084606 61 41 4.0 10.0 0.00 0.00 0.00 86 1009.8
20260905083101 61 30 3.0 8.0 0.00 0.00 0.00 85 1009.6
20260905081556 61 26 2.0 4.0 0.00 0.00 0.00 84 1009.6
20260905080056 62 34 2.0 7.0 0.00 0.00 0.00 83 1009.5
20260905074558 62 18 2.0 7.0 0.00 0.00 0.00 83 1009.4
20260905073105 62 13 2.0 8.0 0.00 0.00 0.00 83 1009.5
20260905071557 62 265 1.0 4.0 0.00 0.00 0.00 83 1009.5
20260905070101 62 263 0.0 4.0 0.00 0.00 0.00 83 1009.6
20260905064552 62 0 0.0 3.0 0.00 0.00 0.00 83 1009.7
20260905063051 62 311 1.0 4.0 0.00 0.00 0.00 83 1009.6
20260905061554 62 300 2.0 5.0 0.00 0.00 0.00 83 1009.6
20260905060059 63 0 0.0 3.0 0.00 0.00 0.00 82 1009.7
20260905054554 63 0 0.0 3.0 0.00 0.00 0.00 81 1009.7
20260905053127 63 355 1.0 5.0 0.00 0.00 0.00 81 1009.7
20260905051558 63 0 2.0 5.0 0.00 0.00 0.00 80 1009.8
20260905050059 64 0 1.0 5.0 0.00 0.00 0.00 80 1009.9
20260905044555 64 281 1.0 8.0 0.00 0.00 0.00 79 1009.7
20260905043049 64 360 2.0 8.0 0.00 0.00 0.00 79 1009.7
20260905041558 64 265 1.0 4.0 0.00 0.00 0.00 79 1009.9
20260905040055 64 0 1.0 7.0 0.00 0.00 0.00 79 1009.9
20260905034552 64 310 0.0 3.0 0.00 0.00 0.00 80 1010.0
20260905033059 64 271 0.0 4.0 0.00 0.00 0.00 79 1010.0
20260905031556 65 258 2.0 4.0 0.00 0.00 0.00 77 1010.0
20260905030053 66 0 0.0 6.0 0.00 0.00 0.00 75 1010.0
20260905024613 67 355 1.0 8.0 0.00 0.00 0.00 74 1010.0
20260905023052 67 32 2.0 8.0 0.00 0.00 0.00 73 1010.1
20260905021600 67 303 2.0 6.0 0.00 0.00 0.00 73 1010.2
20260905020106 68 0 2.0 6.0 0.00 0.00 0.00 72 1010.2
20260905014558 68 0 1.0 9.0 0.00 0.00 0.00 71 1010.2
20260905013102 68 9 1.0 7.0 0.00 0.00 0.00 70 1010.3
20260905011606 69 295 2.0 8.0 0.00 0.00 0.00 69 1010.2
20260905010055 69 336 1.0 5.0 0.00 0.00 0.00 69 1010.3
20260905004557 69 333 2.0 8.0 0.00 0.00 0.00 68 1010.3
20260905003102 70 9 2.0 6.0 0.00 0.00 0.00 67 1010.2
20260905001600 70 342 3.0 11.0 0.00 0.00 0.00 67 1010.2
20260905000057 70 352 4.0 11.0 0.00 0.00 0.00 66 1010.0
20260904234558 71 336 2.0 9.0 0.00 0.00 0.00 66 1009.9
20260904233059 71 263 4.0 11.0 0.00 0.00 0.00 65 1009.9
20260904231558 71 352 2.0 10.0 0.00 0.00 0.00 64 1010.0
20260904230057 72 348 2.0 10.0 0.00 0.00 0.00 63 1010.0
20260904224606 72 9 4.0 11.0 0.00 0.00 0.00 63 1009.8
20260904223054 73 283 2.0 9.0 0.00 0.00 0.00 62 1009.7
20260904221600 73 198 5.0 10.0 0.00 0.00 0.00 61 1009.8
20260904220059 73 56 3.0 12.0 0.00 0.00 0.00 61 1009.8
20260904214607 75 339 5.0 11.0 0.00 0.00 0.00 58 1009.7
20260904213101 76 46 4.0 14.0 0.00 0.00 0.00 57 1009.8
20260904211558 77 312 5.0 14.0 0.00 0.00 0.00 57 1009.8
20260904210059 78 283 5.0 13.0 0.00 0.00 0.00 60 1009.6
20260904204559 78 314 4.0 19.0 0.00 0.00 0.00 59 1009.6
20260904203053 79 339 4.0 12.0 0.00 0.00 0.00 57 1009.6
20260904201633 78 315 6.0 14.0 0.00 0.00 0.00 58 1009.7
20260904200122 77 352 5.0 16.0 0.00 0.00 0.00 60 1009.6
20260904194607 76 281 3.0 10.0 0.00 0.00 0.00 62 1009.4
20260904193111 76 306 4.0 13.0 0.00 0.00 0.00 61 1009.6
20260904191601 76 300 3.0 12.0 0.00 0.00 0.00 63 1009.7
20260904190117 76 5 5.0 13.0 0.00 0.00 0.00 61 1009.8
20260904184605 77 268 5.0 16.0 0.00 0.00 0.00 60 1009.7
20260904183100 78 36 4.0 11.0 0.00 0.00 0.00 61 1009.6
20260904181557 79 18 4.0 12.0 0.00 0.00 0.00 61 1009.6
20260904174559 78 32 6.0 11.0 0.00 0.00 0.00 61 1009.5
20260904173127 77 301 2.0 10.0 0.00 0.00 0.00 66 1009.7
20260904171609 77 297 4.0 12.0 0.00 0.00 0.00 65 1009.8
20260904170058 77 39 6.0 11.0 0.00 0.00 0.00 63 1010.0
20260904164605 78 275 2.0 9.0 0.00 0.00 0.00 65 1010.0
20260904163101 77 338 5.0 11.0 0.00 0.00 0.00 65 1010.2
20260904161602 76 13 2.0 14.0 0.00 0.00 0.00 67 1010.3